Weather History for Novato, CA

Change the Weather History Date:

Friday, August 22, 2014

  Actual Average (KAPC) Record (KAPC)
Temperature  
Mean Temperature 66 °F 66 °F  
Max Temperature 80 °F 80 °F 97 °F (1999)
Min Temperature 53 °F 52 °F 45 °F (2006)
Degree Days  
Heating Degree Days 0    
Month to date heating degree days  
Since 1 June heating degree days  
Since 1 July heating degree days  
Cooling Degree Days 2    
Month to date cooling degree days  
Year to date cooling degree days  
Since 1 June cooling degree days  
Growing Degree Days 16 (Base 50)    
Moisture  
Dew Point 56 °F    
Average Humidity 77    
Maximum Humidity 100    
Minimum Humidity 45    
Precipitation  
Precipitation 0.00 in - 0.11 in (1976)
Month to date precipitation  
Year to date precipitation  
Since 1 July precipitation  
Sea Level Pressure  
Sea Level Pressure 29.91 in    
Wind  
Wind Speed 5 mph (West)    
Max Wind Speed 18 mph    
Max Gust Speed 23 mph    
Visibility 10 miles    
Events      
T = Trace of Precipitation, MM = Missing Value Source: NWS Daily Summary

Daily Weather History Graph

Daily Weather History Graph

Search for Another Location

Airport:

Trip Planner

Search our weather history database for the weather conditions in past years. The results will help you decide how hot, cold, wet, or windy it might be!

Date:

Astronomy

Aug. 22, 2014 Rise Set
Actual Time 6:31 AM PDT 7:54 PM PDT
Civil Twilight 6:03 AM PDT 8:21 PM PDT
Nautical Twilight 5:30 AM PDT 8:54 PM PDT
Astronomical Twilight 4:55 AM PDT 9:29 PM PDT
Moon 3:59 AM PDT (8/22) 6:05 PM PDT (8/22)
Length of Visible Light 14h 17m
Length of Day
13h 22m
Waning Crescent, 7% of the Moon is Illuminated
Aug 22
Waning Crescent
Aug 25
New
Sep 2
First Quarter
Sep 8
Full
Sep 15
Last Quarter

Hourly Weather History & Observations

Time (PDT) Temp. Heat Index Dew Point Humidity Pressure Visibility Wind Dir Wind Speed Gust Speed Precip Events Conditions
12:15 AM 57.2 °F - 55.4 °F 94% 29.93 in 10.0 mi North 5.8 mph - N/A   Clear
12:35 AM 57.2 °F - 55.4 °F 94% 29.93 in 10.0 mi NNW 4.6 mph - N/A   Clear
12:55 AM 57.2 °F - 55.4 °F 94% 29.93 in 10.0 mi North 6.9 mph - N/A   Clear
1:15 AM 57.2 °F - 55.4 °F 94% 29.93 in 10.0 mi NNW 4.6 mph - N/A   Clear
1:35 AM 57.2 °F - 55.4 °F 94% 29.93 in 10.0 mi Calm Calm - N/A   Clear
1:55 AM 59.0 °F - 55.4 °F 88% 29.93 in 10.0 mi Calm Calm - N/A   Scattered Clouds
2:15 AM 57.2 °F - 55.4 °F 94% 29.93 in 10.0 mi NNW 4.6 mph - N/A   Mostly Cloudy
2:35 AM 57.2 °F - 55.4 °F 94% 29.93 in 10.0 mi NW 3.5 mph - N/A   Overcast
2:55 AM 59.0 °F - 57.2 °F 94% 29.93 in 10.0 mi Calm Calm - N/A   Overcast
3:15 AM 59.0 °F - 57.2 °F 94% 29.93 in 10.0 mi Calm Calm - N/A   Overcast
3:35 AM 59.0 °F - 57.2 °F 94% 29.93 in 10.0 mi Calm Calm - N/A   Overcast
3:55 AM 59.0 °F - 57.2 °F 94% 29.93 in 10.0 mi Calm Calm - N/A   Overcast
4:15 AM 59.0 °F - 57.2 °F 94% 29.93 in 10.0 mi Calm Calm - N/A   Overcast
4:35 AM 59.0 °F - 57.2 °F 94% 29.92 in 10.0 mi Calm Calm - N/A   Overcast
4:55 AM 59.0 °F - 55.4 °F 88% 29.92 in 10.0 mi SSW 4.6 mph - N/A   Overcast
5:15 AM 59.0 °F - 55.4 °F 88% 29.93 in 10.0 mi Calm Calm - N/A   Overcast
5:35 AM 59.0 °F - 55.4 °F 88% 29.92 in 10.0 mi Calm Calm - N/A   Overcast
5:55 AM 59.0 °F - 55.4 °F 88% 29.92 in 10.0 mi South 3.5 mph - N/A   Overcast
6:15 AM 59.0 °F - 55.4 °F 88% 29.93 in 10.0 mi Calm Calm - N/A   Overcast
6:35 AM 59.0 °F - 55.4 °F 88% 29.93 in 10.0 mi Calm Calm - N/A   Overcast
6:55 AM 59.0 °F - 55.4 °F 88% 29.94 in 10.0 mi Calm Calm - N/A   Overcast
7:15 AM 59.0 °F - 55.4 °F 88% 29.94 in 10.0 mi NW 3.5 mph - N/A   Overcast
7:35 AM 59.0 °F - 55.4 °F 88% 29.94 in 10.0 mi Calm Calm - N/A   Overcast
7:55 AM 59.0 °F - 55.4 °F 88% 29.94 in 10.0 mi Calm Calm - N/A   Overcast
8:15 AM 59.0 °F - 55.4 °F 88% 29.94 in 10.0 mi Calm Calm - N/A   Overcast
8:35 AM 60.8 °F - 55.4 °F 82% 29.94 in 10.0 mi Calm Calm - N/A   Overcast
8:55 AM 62.6 °F - 55.4 °F 77% 29.94 in 10.0 mi NNW 4.6 mph - N/A   Overcast
9:15 AM 62.6 °F - 57.2 °F 82% 29.94 in 10.0 mi North 5.8 mph - N/A   Overcast
9:35 AM 62.6 °F - 57.2 °F 82% 29.94 in 10.0 mi NNE 4.6 mph - N/A   Scattered Clouds
9:55 AM 64.4 °F - 57.2 °F 77% 29.94 in 10.0 mi ENE 5.8 mph - N/A   Mostly Cloudy
10:15 AM 64.4 °F - 57.2 °F 77% 29.94 in 10.0 mi East 5.8 mph - N/A   Scattered Clouds
10:35 AM 66.2 °F - 57.2 °F 73% 29.95 in 10.0 mi NNE 5.8 mph - N/A   Clear
10:55 AM 68.0 °F - 57.2 °F 68% 29.95 in 10.0 mi NE 5.8 mph - N/A   Clear
11:15 AM 68.0 °F - 57.2 °F 68% 29.94 in 10.0 mi ENE 5.8 mph - N/A   Clear
11:35 AM 71.6 °F - 57.2 °F 60% 29.93 in 10.0 mi South 4.6 mph - N/A   Clear
11:55 AM 73.4 °F - 57.2 °F 57% 29.92 in 10.0 mi ENE 4.6 mph - N/A   Clear
12:15 PM 73.4 °F - 57.2 °F 57% 29.91 in 10.0 mi NE 5.8 mph - N/A   Clear
12:35 PM 75.2 °F - 59.0 °F 57% 29.91 in 10.0 mi SE 5.8 mph - N/A   Clear
12:55 PM 75.2 °F - 59.0 °F 57% 29.91 in 10.0 mi ENE 3.5 mph - N/A   Clear
1:15 PM 77.0 °F - 59.0 °F 54% 29.90 in 10.0 mi ESE 4.6 mph - N/A   Clear
1:35 PM 78.8 °F - 59.0 °F 51% 29.89 in 8.0 mi South 10.4 mph - N/A   Clear
1:55 PM 80.6 °F 80.8 °F 57.2 °F 45% 29.89 in 10.0 mi WSW 13.8 mph 20.7 mph N/A   Clear
2:15 PM 80.6 °F 80.8 °F 57.2 °F 45% 29.88 in 10.0 mi WSW 16.1 mph 19.6 mph N/A   Clear
2:35 PM 78.8 °F - 57.2 °F 47% 29.88 in 10.0 mi West 16.1 mph 20.7 mph N/A   Clear
2:55 PM 77.0 °F - 57.2 °F 50% 29.88 in 10.0 mi WSW 16.1 mph 19.6 mph N/A   Clear
3:15 PM 77.0 °F - 57.2 °F 50% 29.88 in 10.0 mi WSW 18.4 mph 23.0 mph N/A   Clear
3:35 PM 77.0 °F - 57.2 °F 50% 29.88 in 10.0 mi WSW 13.8 mph - N/A   Clear
3:55 PM 77.0 °F - 57.2 °F 50% 29.88 in 10.0 mi WSW 17.3 mph - N/A   Clear
4:15 PM 75.2 °F - 57.2 °F 53% 29.88 in 10.0 mi WSW 15.0 mph 20.7 mph N/A   Clear
4:35 PM 75.2 °F - 57.2 °F 53% 29.87 in 10.0 mi SW 13.8 mph - N/A   Clear
4:55 PM 75.2 °F - 57.2 °F 53% 29.87 in 10.0 mi West 11.5 mph - N/A   Clear
5:15 PM 73.4 °F - 57.2 °F 57% 29.87 in 10.0 mi SW 12.7 mph 23.0 mph N/A   Clear
5:35 PM 73.4 °F - 57.2 °F 57% 29.87 in 10.0 mi SW 15.0 mph - N/A   Clear
5:55 PM 71.6 °F - 57.2 °F 60% 29.87 in 10.0 mi SW 15.0 mph 23.0 mph N/A   Clear
6:15 PM 71.6 °F - 57.2 °F 60% 29.88 in 10.0 mi SW 12.7 mph 16.1 mph N/A   Clear
6:55 PM 66.2 °F - 55.4 °F 68% 29.88 in 10.0 mi SSW 5.8 mph - N/A   Clear
7:15 PM 66.2 °F - 55.4 °F 68% 29.88 in 10.0 mi WSW 4.6 mph - N/A   Clear
7:35 PM 62.6 °F - 55.4 °F 77% 29.89 in 10.0 mi WSW 6.9 mph - N/A   Clear
7:55 PM 62.6 °F - 55.4 °F 77% 29.89 in 10.0 mi WSW 6.9 mph - N/A   Clear
8:15 PM 62.6 °F - 55.4 °F 77% 29.90 in 10.0 mi East 3.5 mph - N/A   Clear
8:35 PM 60.8 °F - 55.4 °F 82% 29.90 in 10.0 mi Calm Calm - N/A   Clear
8:55 PM 59.0 °F - 55.4 °F 88% 29.90 in 10.0 mi ENE 6.9 mph - N/A   Clear
9:15 PM 59.0 °F - 55.4 °F 88% 29.91 in 10.0 mi SE 4.6 mph - N/A   Clear
9:35 PM 59.0 °F - 55.4 °F 88% 29.91 in 10.0 mi West 4.6 mph - N/A   Clear
10:15 PM 55.4 °F - 53.6 °F 94% 29.92 in 10.0 mi East 4.6 mph - N/A   Clear
10:35 PM 55.4 °F - 53.6 °F 94% 29.92 in 10.0 mi East 4.6 mph - N/A   Clear
10:55 PM 57.2 °F - 55.4 °F 94% 29.92 in 10.0 mi Calm Calm - N/A   Clear
11:15 PM 53.6 °F - 53.6 °F 100% 29.92 in 10.0 mi Calm Calm - N/A   Clear
11:35 PM 57.2 °F - 55.4 °F 94% 29.93 in 10.0 mi Calm Calm - N/A   Clear
11:55 PM 55.4 °F - 53.6 °F 94% 29.93 in 10.0 mi ENE 3.5 mph - N/A   Scattered Clouds